Temp
71 70 68 68 61 56 50 58 67 68 67 72 74 73 72 73 71 62 72 76 77 76 77 79 80 80 80 80 79 79 79 79 79 79 79 79 79 79 79 79 80 81 81 81 81 81 81 81 81
70 72 69 61 55 50 54 59 61 69 74 74 76 74 73 72 75 70 72 77 78 77 77 77 79 80 80 79 79 79 79 79 79 79 79 79 79 79 79 79 80 80 81 81 81 81 81 81 81
72 72 64 56 48 51 54 61 66 73 77 75 74 77 76 73 76 73 75 76 76 76 76 76 79 79 79 79 79 79 79 79 79 79 79 79 79 79 79 79 79 80 81 81 81 80 80 80 80
70 67 62 55 51 58 61 66 71 73 77 76 74 72 77 81 77 77 77 77 76 76 79 78 79 79 79 79 79 79 79 79 79 79 79 79 79 78 79 79 79 80 80 80 80 80 80 79 79
65 61 52 48 53 60 66 69 71 71 76 74 75 71 71 77 78 76 76 77 75 78 79 77 79 79 79 79 79 79 79 78 78 79 79 79 79 78 78 79 79 80 80 80 80 79 79 79 78
61 59 50 48 53 63 68 68 69 72 77 76 73 72 71 76 75 75 76 74 77 78 79 76 79 79 79 79 79 78 78 78 78 78 78 78 78 78 78 79 79 79 79 79 79 79 78 78 77
59 55 51 52 55 61 69 69 69 71 76 78 80 71 68 72 76 76 74 73 77 79 79 76 76 78 79 79 78 78 78 78 78 78 78 78 78 78 78 78 78 79 78 78 78 78 78 78 77
61 58 51 52 57 61 68 67 69 72 74 82 83 70 67 73 77 75 72 70 74 76 78 77 75 75 75 76 78 78 78 78 78 78 78 78 78 78 78 77 77 78 78 79 78 78 78 77 77
62 53 49 56 60 65 64 64 73 78 75 79 81 76 78 77 75 70 68 67 69 72 74 76 76 76 73 74 77 78 79 78 78 78 77 76 75 76 77 78 78 79 79 78 78 78 77 77 76
59 49 54 64 68 69 67 66 70 71 73 75 79 81 78 76 74 70 68 67 68 68 69 72 74 72 72 77 74 73 76 74 74 74 74 74 74 74 77 77 76 77 77 77 76 76 76 75 75
55 53 60 66 71 74 72 70 71 72 67 75 76 78 76 74 72 72 72 71 70 70 71 70 70 70 71 72 71 71 72 72 73 74 72 70 71 70 71 68 68 68 72 70 71 70 70 71 72
50 60 63 66 72 68 73 70 72 72 76 81 83 80 76 73 72 72 73 73 70 69 71 70 70 70 70 71 71 71 72 72 70 70 68 67 66 65 65 66 66 65 66 66 66 68 68 68 70
53 59 64 68 69 70 72 73 73 72 79 79 80 78 74 73 73 75 76 76 73 70 71 70 70 69 69 70 70 71 71 70 67 67 67 66 65 64 65 64 64 64 64 64 65 65 66 66 67
59 58 62 64 65 66 68 72 73 76 77 76 75 76 76 75 75 75 76 74 72 73 72 72 71 70 70 69 70 70 70 66 65 65 65 65 63 62 63 62 62 62 63 64 64 64 64 64 65
59 54 60 59 62 64 68 67 69 80 76 74 74 74 76 77 77 76 77 75 75 75 74 72 72 71 70 69 69 68 67 66 64 64 64 64 63 62 61 61 61 61 63 63 63 63 63 63 65
51 50 45 56 60 67 68 57 71 80 79 72 73 73 75 75 77 78 78 78 77 77 73 73 77 72 69 68 67 67 65 64 63 63 63 64 63 62 61 61 61 62 61 62 62 61 62 62 62
47 42 44 54 60 62 63 56 70 75 77 72 70 73 74 74 76 78 79 79 77 76 75 73 71 70 69 66 66 65 63 63 62 62 62 63 64 63 61 60 61 61 60 61 62 61 60 61 61
43 43 44 47 55 57 55 56 65 72 75 74 68 70 73 72 74 79 78 79 76 73 72 72 71 68 65 64 63 62 62 61 61 61 62 62 62 62 60 60 60 60 60 60 60 60 60 60 59
50 48 48 50 58 54 55 54 61 70 68 74 77 69 67 72 77 76 75 76 71 71 72 69 68 65 66 65 64 62 62 60 60 61 63 62 62 61 59 59 59 60 59 59 60 59 58 59 60
51 47 46 52 56 55 53 54 59 63 65 72 76 79 71 68 70 72 72 72 72 69 70 69 69 66 67 69 67 64 62 59 60 60 61 62 62 61 61 59 59 59 59 59 59 57 58 58 58
47 46 47 50 54 53 50 49 55 63 66 68 75 79 72 69 71 71 70 71 72 72 72 71 69 67 67 65 61 59 59 59 59 59 59 61 62 63 61 60 59 59 59 58 58 58 57 56 58
45 55 55 53 48 41 51 38 49 56 61 64 72 74 77 70 73 72 71 70 71 73 75 73 70 68 65 63 65 65 66 61 59 58 59 60 62 62 62 61 60 59 59 58 59 59 57 58 55
52 58 54 52 46 42 45 40 46 49 54 59 65 70 71 70 72 73 73 73 74 75 74 73 70 68 64 65 67 66 61 61 58 58 58 58 59 61 63 61 60 59 59 59 59 59 58 57 57
60 53 49 43 41 34 43 43 41 48 56 58 63 67 69 68 71 73 74 75 74 76 73 72 68 67 65 65 65 65 63 59 59 58 59 58 59 60 61 61 60 59 59 59 59 59 59 57 57
52 44 34 33 33 37 45 41 47 55 59 63 63 67 68 67 71 72 72 72 73 72 72 71 67 66 65 65 64 64 63 61 61 61 61 57 58 59 59 60 59 59 59 59 59 58 58 58 58
46 45 34 30 30 38 44 40 47 57 59 57 60 60 63 65 67 71 73 74 74 73 72 71 68 68 66 66 65 65 64 65 63 62 62 61 60 60 59 59 59 59 60 59 59 59 58 58 58
45 41 46 39 36 33 39 46 53 54 53 54 54 56 54 56 60 67 72 74 74 73 72 71 69 70 67 66 66 63 63 61 61 59 59 60 59 60 59 59 59 59 60 59 58 58 58 58 58
46 47 38 35 31 29 36 38 39 46 48 50 50 52 52 54 53 58 70 72 75 74 74 73 72 71 68 67 67 63 62 61 61 60 59 59 59 60 59 59 59 59 60 60 58 58 58 57 57
40 35 35 35 35 30 30 34 47 46 48 48 49 53 52 53 54 52 56 73 75 76 74 73 71 70 68 67 65 61 62 62 61 61 61 61 60 60 60 59 59 59 60 59 58 57 57 57 57
41 35 34 31 30 30 31 34 51 49 51 52 52 56 57 57 55 53 53 59 72 73 73 72 71 71 70 67 64 64 62 61 61 60 60 60 60 60 60 60 60 60 60 59 58 57 58 57 57
MSLP
1011.13 1011.49 1011.80 1011.93 1012.92 1012.77 1012.03 1011.03 1010.11 1009.56 1009.35 1009.00 1009.08 1009.19 1009.29 1009.50 1010.03 1011.11 1010.37 1010.51 1010.57 1010.91 1011.30 1011.91 1012.45 1012.89 1013.24 1013.51 1013.86 1014.13 1014.35 1014.55 1014.71 1014.85 1015.01 1015.12 1015.21 1015.36 1015.55 1015.68 1015.83 1015.99 1016.13 1016.18 1016.27 1016.31 1016.34 1016.34 1016.31
1011.11 1011.52 1011.89 1012.37 1012.86 1012.96 1011.65 1010.55 1009.89 1009.01 1008.57 1008.50 1008.79 1008.79 1008.91 1009.04 1009.48 1010.19 1010.61 1010.61 1010.86 1011.01 1011.37 1011.81 1012.35 1012.78 1013.16 1013.45 1013.87 1014.25 1014.47 1014.71 1014.87 1014.97 1015.12 1015.30 1015.44 1015.59 1015.74 1015.85 1015.96 1016.13 1016.23 1016.28 1016.37 1016.43 1016.42 1016.45 1016.45
1011.09 1011.46 1012.37 1012.91 1013.05 1012.57 1011.21 1009.66 1009.26 1008.41 1008.21 1008.49 1008.31 1008.52 1008.56 1008.89 1009.37 1009.67 1009.99 1010.64 1011.00 1011.47 1011.81 1012.12 1012.45 1012.77 1013.17 1013.57 1013.91 1014.25 1014.49 1014.73 1014.91 1015.04 1015.25 1015.49 1015.65 1015.78 1015.90 1016.02 1016.16 1016.25 1016.35 1016.38 1016.41 1016.47 1016.49 1016.50 1016.56
1011.33 1012.13 1013.09 1013.01 1012.74 1011.36 1010.47 1008.94 1008.57 1008.19 1007.89 1008.03 1007.85 1008.35 1008.45 1008.53 1008.89 1009.30 1009.93 1010.53 1011.10 1011.65 1011.97 1012.42 1012.72 1012.96 1013.35 1013.71 1014.07 1014.30 1014.54 1014.82 1015.08 1015.26 1015.45 1015.64 1015.80 1015.95 1016.10 1016.24 1016.39 1016.49 1016.48 1016.48 1016.52 1016.53 1016.49 1016.50 1016.53
1011.66 1012.55 1013.34 1013.23 1012.24 1010.77 1009.51 1008.43 1008.13 1007.76 1007.03 1007.31 1007.64 1008.23 1008.43 1008.69 1009.17 1009.79 1010.25 1010.54 1011.07 1011.79 1012.14 1012.47 1012.81 1013.10 1013.42 1013.80 1014.15 1014.42 1014.70 1014.99 1015.23 1015.44 1015.62 1015.76 1015.96 1016.14 1016.28 1016.42 1016.55 1016.64 1016.63 1016.61 1016.61 1016.64 1016.62 1016.57 1016.49
1012.17 1012.86 1013.44 1013.05 1011.83 1010.21 1008.85 1008.03 1007.77 1007.41 1006.55 1007.05 1007.53 1007.67 1008.33 1008.78 1009.06 1010.04 1010.79 1010.90 1011.37 1011.72 1012.14 1012.60 1012.87 1013.28 1013.62 1013.88 1014.18 1014.48 1014.77 1015.07 1015.31 1015.55 1015.79 1015.92 1016.10 1016.27 1016.41 1016.55 1016.68 1016.80 1016.81 1016.79 1016.77 1016.78 1016.72 1016.59 1016.42
1011.93 1012.73 1012.73 1012.17 1011.19 1009.96 1008.36 1007.59 1007.34 1006.87 1006.70 1005.63 1005.74 1007.51 1008.77 1009.18 1009.30 1010.22 1010.73 1011.26 1011.77 1011.69 1012.18 1012.71 1013.03 1013.34 1013.73 1014.03 1014.29 1014.56 1014.90 1015.13 1015.39 1015.68 1015.92 1016.10 1016.23 1016.41 1016.54 1016.69 1016.78 1016.89 1016.92 1016.88 1016.81 1016.77 1016.63 1016.47 1016.32
1011.65 1012.14 1012.38 1011.69 1010.67 1009.24 1007.92 1007.25 1007.03 1007.00 1006.17 1005.43 1005.60 1007.12 1008.37 1008.57 1009.37 1010.55 1011.35 1011.57 1012.17 1012.15 1012.41 1012.73 1013.18 1013.45 1013.75 1014.10 1014.38 1014.64 1014.95 1015.25 1015.53 1015.79 1016.06 1016.26 1016.38 1016.52 1016.63 1016.67 1016.77 1016.85 1016.87 1016.83 1016.75 1016.61 1016.45 1016.29 1016.17
1011.39 1012.11 1012.05 1011.00 1010.05 1008.59 1007.97 1007.36 1006.65 1006.47 1006.35 1006.27 1006.19 1006.48 1006.83 1007.98 1008.97 1010.82 1011.66 1012.32 1012.41 1012.51 1012.55 1012.89 1013.23 1013.48 1013.79 1014.14 1014.47 1014.80 1015.13 1015.41 1015.68 1015.92 1016.16 1016.35 1016.52 1016.61 1016.69 1016.71 1016.71 1016.78 1016.83 1016.77 1016.69 1016.56 1016.39 1016.27 1016.15
1011.35 1011.81 1011.05 1009.73 1008.68 1008.00 1007.77 1007.59 1006.78 1006.61 1006.29 1006.29 1006.39 1006.46 1007.35 1008.29 1008.81 1010.66 1011.75 1012.36 1012.43 1012.40 1012.58 1012.93 1013.33 1013.62 1013.81 1014.13 1014.53 1014.94 1015.28 1015.58 1015.87 1016.13 1016.31 1016.45 1016.55 1016.69 1016.77 1016.89 1016.83 1016.89 1016.96 1016.94 1016.92 1016.81 1016.63 1016.49 1016.33
1011.01 1010.98 1010.21 1009.21 1008.16 1007.51 1007.13 1006.93 1006.60 1006.09 1005.88 1005.67 1005.65 1006.41 1007.32 1008.47 1009.31 1010.49 1011.79 1011.94 1012.57 1012.17 1012.69 1012.90 1013.38 1013.67 1013.89 1014.16 1014.67 1015.09 1015.44 1015.75 1016.01 1016.24 1016.51 1016.64 1016.77 1016.89 1017.13 1017.26 1017.27 1017.32 1017.34 1017.32 1017.27 1017.16 1017.01 1016.93 1016.72
1010.88 1010.13 1009.69 1009.01 1008.07 1007.71 1007.21 1006.40 1006.35 1006.19 1004.98 1005.16 1005.23 1006.15 1006.84 1007.99 1009.20 1010.56 1011.55 1012.27 1013.13 1012.47 1012.46 1013.01 1013.26 1013.69 1013.98 1014.20 1014.57 1015.01 1015.48 1015.87 1016.20 1016.41 1016.68 1016.92 1017.25 1017.44 1017.57 1017.51 1017.66 1017.79 1017.83 1017.76 1017.73 1017.59 1017.47 1017.25 1017.05
1010.53 1009.82 1009.29 1008.63 1008.23 1007.94 1007.56 1006.56 1006.42 1005.81 1004.99 1004.88 1005.35 1006.06 1006.83 1007.37 1008.25 1009.64 1010.56 1011.85 1012.55 1012.69 1012.51 1012.91 1013.27 1013.63 1013.87 1014.23 1014.65 1015.03 1015.45 1015.90 1016.30 1016.63 1016.92 1017.08 1017.32 1017.66 1017.70 1017.95 1018.03 1018.17 1018.17 1018.11 1018.03 1017.91 1017.83 1017.55 1017.24
1009.73 1009.43 1008.83 1008.30 1007.89 1007.70 1007.49 1006.82 1006.48 1004.95 1004.86 1004.89 1005.54 1005.70 1006.06 1006.98 1007.50 1009.09 1009.85 1010.99 1012.02 1012.22 1012.27 1012.65 1013.15 1013.49 1013.74 1014.33 1014.59 1015.01 1015.46 1016.01 1016.47 1016.86 1017.02 1017.20 1017.46 1017.75 1017.97 1018.27 1018.47 1018.51 1018.47 1018.40 1018.19 1018.08 1017.95 1017.85 1017.59
1009.55 1009.69 1008.93 1008.27 1007.64 1007.40 1007.05 1006.70 1006.09 1004.14 1004.86 1005.07 1005.30 1005.75 1006.19 1006.44 1007.07 1007.83 1008.85 1010.17 1011.19 1011.67 1011.89 1012.45 1013.08 1013.39 1013.75 1014.41 1014.75 1015.19 1015.63 1016.04 1016.49 1016.83 1017.14 1017.40 1017.60 1017.91 1018.16 1018.41 1018.53 1018.62 1018.72 1018.59 1018.50 1018.45 1018.20 1017.91 1017.62
1010.03 1009.87 1009.43 1008.29 1007.55 1006.77 1006.65 1006.19 1005.50 1004.38 1004.41 1005.33 1005.50 1005.76 1006.43 1007.03 1006.71 1007.42 1008.50 1009.56 1010.48 1011.20 1011.60 1012.28 1012.91 1013.45 1013.89 1014.33 1014.72 1015.27 1015.80 1016.16 1016.55 1016.92 1017.23 1017.52 1017.75 1017.90 1018.19 1018.36 1018.65 1018.81 1018.78 1018.78 1018.70 1018.58 1018.36 1018.19 1017.89
1010.99 1010.47 1009.78 1008.85 1007.54 1007.11 1006.73 1006.25 1005.07 1004.23 1004.36 1005.79 1005.79 1005.74 1006.00 1006.67 1007.21 1007.72 1008.10 1008.91 1009.78 1010.78 1011.25 1011.84 1012.53 1013.20 1013.86 1014.45 1014.80 1015.34 1015.98 1016.33 1016.61 1016.90 1017.29 1017.58 1017.76 1017.97 1018.18 1018.59 1019.00 1019.05 1019.01 1019.03 1018.97 1018.81 1018.67 1018.57 1018.07
1011.03 1010.57 1009.83 1009.10 1008.24 1007.67 1007.25 1006.96 1005.98 1004.87 1004.16 1004.71 1005.72 1006.37 1006.39 1006.30 1006.47 1006.92 1007.65 1008.35 1009.45 1010.47 1011.48 1011.83 1011.99 1012.94 1013.72 1014.47 1015.15 1015.71 1016.27 1016.73 1016.87 1017.07 1017.31 1017.56 1017.83 1018.07 1018.36 1018.73 1018.97 1019.07 1019.12 1019.09 1019.12 1019.09 1019.01 1019.05 1018.64
1010.32 1010.16 1009.76 1009.08 1008.39 1008.11 1007.63 1007.30 1006.48 1005.73 1004.79 1004.41 1004.95 1006.04 1006.53 1005.98 1005.81 1006.71 1007.59 1008.44 1009.36 1009.91 1010.69 1011.77 1011.73 1012.64 1013.45 1014.37 1015.13 1015.97 1016.36 1016.90 1017.11 1017.21 1017.31 1017.60 1017.83 1018.07 1018.42 1018.82 1018.98 1019.01 1018.92 1019.28 1019.31 1019.17 1019.24 1019.11 1018.67
1009.91 1009.99 1009.66 1009.08 1008.39 1008.18 1007.78 1007.39 1006.56 1005.66 1005.04 1004.23 1004.01 1004.07 1005.12 1006.05 1005.88 1006.41 1006.94 1007.68 1008.39 1009.32 1010.55 1010.84 1011.48 1012.19 1012.78 1013.47 1014.10 1014.84 1015.70 1016.69 1017.15 1017.25 1017.38 1017.47 1017.80 1018.17 1018.44 1018.62 1018.91 1019.05 1019.17 1019.33 1019.47 1019.33 1019.39 1019.68 1019.48
1009.61 1009.71 1009.64 1009.31 1008.57 1008.23 1008.12 1007.38 1006.53 1004.83 1004.29 1003.77 1003.66 1003.06 1004.26 1004.49 1005.14 1005.52 1006.36 1006.74 1007.72 1008.41 1009.07 1009.89 1010.74 1011.46 1012.23 1013.03 1014.03 1014.94 1015.85 1016.85 1017.51 1017.47 1017.42 1017.57 1017.83 1018.08 1018.33 1018.62 1018.94 1019.11 1019.11 1019.53 1019.69 1019.60 1019.69 1020.08 1020.01
1009.00 1008.83 1008.97 1009.30 1009.45 1009.26 1008.51 1008.01 1006.78 1005.07 1004.40 1003.68 1002.91 1002.98 1003.06 1003.93 1004.30 1004.67 1005.13 1006.07 1006.67 1006.93 1008.26 1009.23 1009.94 1010.70 1011.74 1012.62 1013.39 1014.05 1014.81 1015.95 1016.18 1016.48 1016.95 1017.49 1017.77 1017.99 1018.32 1018.61 1018.86 1018.96 1019.19 1019.49 1019.65 1019.79 1020.11 1020.18 1020.39
1007.93 1008.05 1008.67 1009.18 1009.69 1009.84 1009.11 1009.15 1006.63 1005.89 1005.22 1004.12 1003.19 1002.65 1002.90 1003.14 1003.48 1003.98 1004.37 1004.60 1004.67 1006.17 1007.24 1008.22 1009.53 1010.40 1011.25 1012.08 1012.68 1013.47 1014.47 1015.15 1015.63 1016.26 1016.87 1017.32 1017.67 1017.91 1018.22 1018.50 1018.66 1018.90 1019.11 1019.37 1019.57 1019.93 1020.29 1020.35 1020.61
1007.11 1008.05 1009.08 1010.11 1010.48 1010.37 1009.29 1009.12 1007.27 1006.09 1004.80 1003.96 1003.51 1002.96 1002.60 1002.91 1003.03 1003.27 1003.41 1004.11 1004.53 1005.77 1007.10 1007.99 1009.15 1009.97 1010.71 1011.50 1012.29 1012.81 1013.57 1014.65 1015.58 1015.98 1016.53 1017.13 1017.58 1017.99 1018.12 1018.35 1018.60 1018.80 1019.00 1019.30 1019.57 1019.84 1020.16 1020.47 1020.76
1007.64 1008.72 1010.24 1011.09 1011.36 1009.90 1009.02 1009.11 1006.81 1005.25 1004.48 1003.75 1003.49 1003.01 1002.64 1003.05 1002.98 1003.00 1003.23 1003.72 1004.72 1005.44 1005.98 1007.06 1008.39 1009.27 1010.07 1010.83 1011.46 1012.23 1012.93 1013.81 1014.37 1015.18 1015.86 1016.83 1017.48 1017.79 1017.95 1018.20 1018.50 1018.67 1018.89 1019.16 1019.34 1019.61 1020.11 1020.55 1020.75
1008.49 1009.22 1010.78 1011.03 1011.23 1010.19 1009.47 1008.27 1006.30 1005.22 1005.10 1005.23 1004.52 1004.07 1003.64 1003.58 1003.16 1002.76 1002.51 1002.55 1002.99 1004.31 1004.97 1005.85 1007.10 1008.31 1009.25 1010.20 1010.73 1011.51 1012.50 1013.18 1013.81 1014.46 1015.32 1016.06 1016.62 1017.08 1017.57 1017.93 1018.14 1018.35 1018.44 1018.83 1019.33 1019.69 1020.08 1020.37 1020.57
1009.64 1009.99 1010.39 1011.01 1011.18 1010.92 1009.81 1007.80 1006.49 1006.43 1006.50 1006.41 1006.05 1005.58 1005.05 1004.51 1003.83 1002.97 1002.25 1002.15 1002.43 1003.13 1003.64 1004.34 1005.67 1006.87 1008.27 1009.07 1010.29 1011.21 1012.18 1012.84 1013.28 1014.26 1014.82 1015.54 1016.29 1016.85 1017.34 1017.63 1017.96 1018.16 1018.32 1018.68 1019.31 1019.63 1019.93 1020.02 1020.28
1010.93 1011.74 1011.71 1012.03 1012.41 1011.93 1010.52 1009.35 1009.05 1008.59 1008.26 1007.86 1007.28 1006.77 1005.83 1004.79 1004.36 1003.46 1002.46 1001.69 1001.79 1002.11 1003.09 1004.51 1005.00 1005.32 1006.36 1007.77 1009.19 1010.51 1011.49 1012.31 1012.87 1013.79 1014.70 1015.30 1015.94 1016.46 1016.81 1017.28 1017.74 1017.98 1018.30 1018.61 1019.13 1019.54 1019.63 1019.76 1019.85
1013.02 1013.40 1013.91 1013.55 1013.43 1013.01 1011.97 1010.96 1010.16 1010.02 1009.59 1009.22 1008.56 1007.74 1006.84 1005.54 1004.59 1003.70 1002.50 1001.40 1001.05 1001.52 1002.11 1002.75 1004.31 1005.56 1006.66 1007.75 1008.88 1010.10 1010.98 1011.77 1012.18 1013.33 1014.12 1014.69 1015.35 1015.99 1016.55 1016.97 1017.47 1017.97 1018.28 1018.64 1019.07 1019.39 1019.36 1019.47 1019.58
1014.93 1015.84 1015.65 1015.32 1015.13 1014.36 1013.49 1012.08 1011.01 1010.62 1010.18 1009.63 1008.96 1008.28 1007.10 1006.13 1005.17 1004.01 1002.87 1001.81 1001.16 1001.37 1002.02 1002.48 1003.60 1004.71 1005.71 1006.94 1008.52 1009.63 1010.61 1011.44 1011.74 1012.77 1013.90 1014.40 1014.96 1015.55 1016.04 1016.71 1017.38 1017.79 1018.14 1018.55 1018.90 1019.16 1019.19 1019.10 1019.06
Wind_Speed
4 4 2 3 4 5 2 5 1 1 1 3 3 5 8 4 4 5 2 3 9 13 12 12 14 15 16 16 15 15 14 13 12 12 12 12 12 11 10 8 7 7 7 7 7 7 8 8 9
5 3 4 2 5 3 5 3 5 6 4 4 4 2 3 5 4 5 5 4 8 12 10 11 15 15 16 16 15 14 14 13 12 12 12 11 10 10 9 7 6 5 5 5 6 7 7 7 8
5 3 4 5 3 5 5 4 6 4 5 5 5 1 4 3 2 9 6 10 9 9 7 8 14 15 15 16 16 15 14 14 12 12 11 10 9 9 7 6 5 4 4 4 6 6 7 7 8
3 4 5 5 5 6 5 6 7 5 5 5 4 4 3 3 7 6 13 13 11 8 9 10 13 13 14 16 15 14 14 13 12 12 11 10 9 7 6 5 4 4 3 5 6 7 8 9 8
4 3 4 1 5 6 6 6 4 4 6 6 6 4 3 4 10 13 12 13 12 10 11 9 13 13 14 16 15 13 12 11 10 10 10 9 8 6 5 4 4 3 3 4 6 8 8 9 10
4 4 3 4 5 5 7 4 1 4 5 8 7 5 4 7 11 11 10 10 10 13 13 7 12 12 13 14 14 13 12 11 10 9 8 7 7 6 4 3 3 3 4 6 7 8 9 10 11
6 5 5 5 3 4 6 7 4 3 2 5 5 5 1 1 9 10 10 9 11 13 12 6 6 11 13 12 12 12 11 10 9 8 7 6 5 4 3 2 3 4 5 6 7 7 8 9 9
5 4 5 4 6 6 3 3 4 3 6 4 6 7 5 6 14 9 7 8 10 10 12 12 7 6 6 7 13 12 11 10 9 8 6 5 4 3 2 2 4 4 5 6 7 8 9 10 9
4 4 4 7 7 5 2 2 3 1 2 4 7 6 6 19 18 8 7 4 5 9 11 10 11 10 6 6 8 10 12 10 8 6 6 4 2 2 3 3 4 4 6 7 7 9 10 10 9
4 4 10 8 5 3 3 4 3 2 4 5 7 6 16 17 17 14 10 9 10 10 8 10 10 8 7 6 5 5 5 4 4 4 4 2 3 2 3 7 8 10 10 12 11 11 11 9 5
5 6 6 5 4 3 3 5 3 6 2 7 12 11 17 15 12 13 10 12 13 10 7 7 6 6 6 5 4 3 2 3 3 5 4 4 4 4 4 3 4 4 8 4 6 6 5 6 5
2 7 5 4 4 2 6 2 6 5 12 7 7 12 14 18 15 13 11 9 8 8 9 7 7 8 6 5 5 5 4 3 3 4 6 5 3 4 4 3 4 4 3 4 4 3 5 5 5
4 5 5 8 8 8 2 9 8 9 12 3 11 16 17 19 19 14 12 10 9 10 9 10 8 8 6 6 4 5 5 4 4 4 5 4 4 4 3 4 3 4 3 3 3 4 4 5 6
5 4 6 6 8 5 5 7 8 12 6 4 13 18 19 21 22 14 15 14 13 12 12 11 11 8 7 6 6 5 5 5 4 4 4 5 4 4 4 4 4 3 3 3 3 3 4 4 4
5 4 6 4 5 8 8 6 13 25 6 7 11 12 14 18 21 23 17 15 15 13 12 12 10 8 9 7 5 4 5 5 5 4 5 6 5 5 5 4 3 3 3 4 4 3 3 4 5
3 3 1 6 2 6 9 10 8 17 12 8 9 11 13 14 23 17 15 15 14 13 13 12 10 10 7 8 6 5 5 4 5 5 4 6 6 6 5 4 4 3 3 3 3 4 4 5 6
6 3 4 7 3 3 6 5 5 3 13 3 6 10 15 14 13 13 16 17 14 12 13 13 10 11 9 7 6 6 6 4 4 5 4 6 6 6 6 4 3 3 3 4 3 3 3 6 7
6 4 4 4 3 4 5 6 7 2 9 9 3 6 12 13 18 18 17 17 13 9 11 11 10 9 8 6 5 4 4 3 3 4 4 6 5 6 6 4 4 4 3 4 3 4 4 4 6
5 5 5 4 5 2 7 5 10 9 6 16 16 9 8 16 15 10 11 12 12 11 14 12 12 10 10 7 7 5 5 3 2 3 6 6 6 6 6 4 4 3 5 4 4 2 5 6 9
5 5 5 6 5 6 5 9 10 8 11 17 26 30 16 10 10 11 14 16 18 17 16 15 15 14 11 9 6 5 5 3 1 3 5 6 6 6 6 5 4 4 4 5 5 5 2 3 7
4 5 4 9 5 3 3 7 5 8 9 10 18 24 14 18 17 15 16 19 17 20 21 19 17 16 12 9 7 5 5 4 2 2 3 4 6 6 6 6 5 5 4 4 4 4 5 3 4
6 8 8 6 2 5 4 7 6 7 9 8 15 14 19 17 18 18 20 18 20 22 18 17 17 17 11 13 11 15 12 8 5 5 4 5 6 6 6 6 5 5 3 5 4 4 3 2 4
9 7 9 5 5 3 5 1 8 3 7 10 11 12 12 16 19 20 21 22 25 19 19 17 15 16 13 15 14 13 8 5 3 4 8 5 5 5 5 5 5 5 3 4 5 4 4 2 3
5 4 6 5 4 3 5 8 6 6 8 5 7 13 8 12 16 19 20 18 18 16 15 15 17 17 15 16 13 16 14 9 8 6 7 5 3 4 5 5 5 5 5 4 4 4 4 3 2
4 5 3 3 0 11 2 5 9 9 9 9 10 10 8 7 14 18 20 18 15 17 19 17 18 18 16 18 15 14 13 14 13 11 8 7 5 3 5 5 5 4 5 5 4 4 2 1 1
4 9 7 7 5 7 4 7 8 8 7 10 8 7 8 7 9 17 22 22 24 23 21 21 21 19 18 18 17 13 11 9 8 10 8 7 6 5 6 6 6 6 6 5 4 2 1 2 1
3 3 7 3 1 3 5 8 3 14 13 15 13 9 8 8 9 11 17 19 20 20 24 25 23 21 18 19 14 11 10 10 10 9 7 7 6 5 7 6 6 5 5 5 4 2 2 2 2
5 4 3 3 4 4 5 2 3 13 14 14 15 13 11 8 7 10 12 18 19 21 20 17 19 24 23 19 15 12 12 11 11 10 9 9 7 7 8 7 6 5 4 4 4 2 2 3 2
5 5 5 2 3 5 3 3 3 5 7 9 10 11 10 10 11 10 11 14 20 19 21 22 19 19 17 16 14 13 13 12 12 10 9 10 7 8 8 7 6 5 5 4 3 4 4 4 4
9 5 3 1 3 1 2 4 6 7 8 8 12 14 12 11 10 9 10 8 13 17 16 19 18 18 17 16 14 14 12 10 12 11 9 10 10 8 8 7 6 5 5 4 5 4 4 5 4
Wind_Direction
137 99 90 43 46 60 252 254 304 253 287 192 160 167 199 170 179 204 340 167 140 147 150 155 157 154 144 140 140 137 131 127 123 117 113 109 107 107 106 103 100 101 96 87 73 64 56 49 44
126 107 40 75 85 37 274 190 218 226 183 188 205 208 178 200 131 113 115 140 147 140 147 153 160 155 152 150 146 142 136 129 123 116 113 111 109 110 109 107 103 96 83 65 54 44 36 33 36
113 58 83 92 109 187 226 207 180 229 220 196 142 341 163 177 154 155 135 125 120 131 135 153 159 158 156 153 149 144 140 138 132 128 124 118 113 109 110 109 101 89 62 44 29 20 12 11 21
121 19 33 92 224 248 218 267 180 213 218 182 144 127 94 346 151 148 131 129 120 140 149 165 161 156 156 155 152 147 145 144 142 140 134 130 124 119 116 107 94 72 42 21 9 358 354 356 2
46 56 72 104 266 265 249 258 177 279 182 159 164 183 104 88 101 123 133 132 137 152 168 164 161 159 158 156 155 148 146 146 146 145 142 140 132 124 115 107 96 77 34 9 355 347 345 347 347
59 102 85 210 246 261 268 221 225 247 303 156 168 128 146 131 122 142 145 131 144 158 166 155 158 156 154 155 152 150 148 146 148 148 144 140 136 132 125 107 77 41 17 3 353 346 344 343 340
134 111 206 179 231 298 253 133 203 254 320 297 117 132 73 162 129 142 137 118 150 157 162 145 149 156 155 153 149 145 146 149 147 140 143 141 142 130 112 68 26 16 2 350 344 340 332 329 328
116 111 142 210 185 242 290 213 122 225 281 296 112 196 190 188 134 117 101 109 151 160 163 165 152 145 141 147 150 149 150 146 146 146 142 146 132 122 81 44 11 359 349 342 339 332 331 331 334
128 77 185 193 169 237 346 33 312 209 266 237 197 151 183 139 121 104 111 99 142 163 165 168 167 165 148 141 158 151 153 155 147 142 141 122 108 82 53 17 354 349 357 353 360 1 9 18 16
132 152 204 201 199 167 219 242 270 239 239 221 192 96 121 136 135 148 174 181 187 176 168 167 171 161 145 152 138 138 149 129 129 126 114 111 92 88 70 44 45 59 53 49 37 23 21 24 14
175 201 202 249 227 223 205 251 233 292 233 220 191 160 141 138 142 161 197 191 201 179 171 165 150 152 152 137 135 126 128 123 122 116 100 83 82 69 76 65 52 47 42 34 28 17 20 16 16
195 227 222 212 211 205 263 224 287 239 259 224 199 146 144 158 162 179 195 196 213 180 176 170 159 163 163 138 145 139 132 125 114 110 115 106 93 84 88 75 61 49 29 36 28 29 14 15 8
210 236 213 226 235 254 242 252 243 255 266 313 142 156 168 167 165 178 185 200 195 191 180 176 166 168 158 147 141 138 139 126 125 119 124 122 110 103 96 72 61 48 34 39 35 34 17 6 356
224 226 245 262 256 231 203 256 154 261 240 255 165 178 171 175 171 176 182 191 196 188 185 175 180 169 150 149 146 148 133 130 126 127 129 113 114 113 95 82 68 60 46 44 41 25 15 9 357
255 290 303 238 245 212 179 255 200 243 242 208 195 188 192 187 166 192 181 188 196 197 180 177 176 158 157 147 133 130 137 137 133 127 124 121 116 113 116 108 84 65 47 50 37 18 19 17 355
337 63 329 279 6 245 155 250 225 250 212 211 204 180 189 188 192 182 181 188 195 186 179 170 175 167 152 149 141 134 139 133 135 133 126 121 117 116 99 85 65 58 49 45 41 22 19 5 357
352 233 223 308 245 258 173 256 298 218 167 345 274 196 183 190 198 192 185 186 185 184 176 169 160 166 160 138 137 133 139 135 140 128 129 130 119 111 103 96 96 76 65 49 33 37 44 12 352
223 223 241 221 285 45 313 272 313 297 127 168 200 247 201 188 199 197 189 183 172 168 179 175 159 151 141 127 116 101 110 117 140 137 135 127 121 118 110 103 98 101 91 58 44 55 40 20 340
208 201 229 248 240 251 252 253 270 238 242 198 222 205 224 200 205 184 165 166 160 171 175 174 163 160 149 151 148 145 160 151 124 153 144 139 132 126 117 118 114 97 76 74 47 51 39 21 357
201 238 270 273 260 173 269 270 259 216 223 212 206 235 203 211 176 167 166 166 178 170 179 180 178 168 168 163 158 140 142 128 135 160 150 141 135 135 128 125 108 99 93 65 56 48 44 30 18
207 187 223 232 297 252 277 293 233 265 213 217 224 218 200 193 197 175 174 179 180 182 186 181 180 169 166 151 118 93 76 73 120 166 135 162 152 143 130 125 124 107 88 79 66 61 61 35 24
235 209 230 248 129 254 148 280 253 257 234 222 219 217 214 199 204 191 185 180 186 197 183 179 175 169 161 157 162 164 173 168 191 163 148 155 161 144 141 138 133 111 104 89 78 65 70 88 39
222 205 203 213 207 71 242 227 269 294 260 251 249 244 217 193 193 197 197 193 195 179 183 179 173 171 163 173 175 171 177 165 137 133 144 145 151 153 157 154 130 120 113 101 88 76 71 65 77
198 144 51 51 106 254 188 179 267 215 208 250 218 250 224 195 196 200 200 202 193 182 177 172 177 180 171 176 181 183 175 159 154 155 154 150 149 162 162 144 133 128 118 112 109 106 83 80 95
119 76 304 319 69 246 231 134 233 242 237 229 227 246 258 196 201 202 194 193 193 189 179 175 179 183 180 184 182 187 178 173 168 166 160 156 157 171 175 155 149 135 133 121 113 100 94 118 143
211 164 164 225 207 257 122 233 254 253 18 5 344 304 303 306 218 208 204 199 186 191 186 181 183 183 182 186 190 185 182 178 164 162 162 168 166 155 155 147 143 139 127 113 115 107 130 183 221
315 180 156 174 352 95 230 288 305 4 1 357 346 344 338 327 307 234 215 205 202 195 190 186 184 188 186 189 184 184 178 166 157 150 152 158 145 149 153 148 136 138 130 131 145 158 194 189 229
69 355 65 5 206 233 269 281 300 347 340 341 341 339 332 328 318 299 235 209 202 195 194 198 196 189 187 181 183 180 170 156 151 151 156 158 152 150 150 146 147 150 154 150 157 199 214 208 234
337 22 359 123 138 193 213 273 330 303 311 323 328 325 323 334 328 307 282 232 207 198 191 190 188 188 183 183 176 166 164 168 151 155 160 161 147 156 156 155 157 169 178 175 191 222 234 235 245
64 50 48 62 207 228 176 247 332 322 312 331 341 339 335 342 323 320 310 257 206 200 194 194 187 187 184 172 166 167 159 161 151 147 159 157 164 162 162 158 166 175 190 188 212 233 236 235 265